Hourly Data Report for October 07, 2015

All times are specified in Local Standard Time (LST). Add 1 hour to adjust for Daylight Saving Time where and when it is observed.

MONCTON INTL A
NEW BRUNSWICK

46°06'44.000" N
64°40'43.000" W
70.70 m
8103201
71705
YQM

Download Data

Hourly Data (October 2015)
Hourly Data Report for October 7, 2015
Temp Definition
°C
Dew Point Temp Definition
°C
Rel Hum Definition
%
Wind Dir Definition
10's deg

Wind Spd Definition
km/h
Visibility Definition
km
Stn Press Definition
kPa
Hmdx Definition


Wind Chill Definition


Weather Definition


TIME
00:00 Legend Double Dagger 7.3 7.3 100 21 10 2.0 100.16     Fog
01:00 Legend Double Dagger 5.7 5.7 100 22 13 0.8 100.09     Fog
02:00 Legend Double Dagger 6.3 6.3 100 24 13 0.8 100.08     Fog
03:00 Legend Double Dagger 5.2 5.2 100 24 11 16.1 100.07     LegendNANA
04:00 Legend Double Dagger 4.8 4.8 100 22 16 1.2 100.05     Fog
05:00 Legend Double Dagger 4.5 4.5 100 22 14 6.4 100.08     Fog
06:00 Legend Double Dagger 4.9 4.9 100 22 19 1.2 100.10     Fog
07:00 Legend Double Dagger 5.3 5.3 100 23 14 24.1 100.10     LegendNANA
08:00 Legend Double Dagger 7.7 7.6 99 25 14 24.1 100.11     Mainly Clear
09:00 Legend Double Dagger 9.6 7.4 86 23 15 24.1 100.12     LegendNANA
10:00 Legend Double Dagger 11.4 7.5 77 22 15 24.1 100.11     LegendNANA
11:00 Legend Double Dagger 14.1 8.1 67 22 14 24.1 100.07     Mainly Clear
12:00 Legend Double Dagger 15.2 7.8 61 27 14 24.1 100.04     LegendNANA
13:00 Legend Double Dagger 16.3 8.1 58 25 17 24.1 99.97     LegendNANA
14:00 Legend Double Dagger 16.6 7.4 54 23 21 24.1 99.92     Mainly Clear
15:00 Legend Double Dagger 16.3 7.3 55 22 17 24.1 99.89     LegendNANA
16:00 Legend Double Dagger 16.3 7.3 55 24 18 24.1 99.89     LegendNANA
17:00 Legend Double Dagger 15.5 7.6 59 25 19 24.1 99.91     Mainly Clear
18:00 Legend Double Dagger 13.4 7.7 68 23 18 24.1 99.98     LegendNANA
19:00 Legend Double Dagger 11.4 7.5 77 22 15 24.1 100.01     LegendNANA
20:00 Legend Double Dagger 11.3 7.3 76 23 17 24.1 100.00     Mainly Clear
21:00
22:00 Legend Double Dagger 10.0 6.9 81 24 16 24.1 100.00     LegendNANA
23:00 Legend Double Dagger 10.2 7.1 81 26 16 24.1 100.03     Mostly Cloudy

Notes on Data Quality.

Legend

  • E = Estimated
  • M = Missing
  • NA = Not Available
  • ‡ = Partner data that is not subject to review by the National Climate Archives
Date modified: